START_TIME,STEP,MOV.,M6,t_acc.,M7,t_acc.,M19,t_acc.,H36,t_acc.
1980-11-13 18:00:15.660 ,6,0,0.,12.0,0.,12.0,0.,12.0,0.,12.0
1980-11-13 18:00:27.660 ,6,0,0.,12.0,0.,12.0,0.,12.0,0.,12.0
1980-11-13 18:00:39.660 ,7,1,0.,12.0,0.,12.0,0.,12.0,0.,12.0
1980-11-13 18:00:51.660 ,7,1,0.,12.0,0.,12.0,0.,12.0,0.,12.0
1980-11-13 18:01:03.660 ,7,0,0.,12.0,0.,12.0,0.,12.0,0.,12.0
1980-11-13 18:01:15.660 ,7,0,0.,12.0,0.,12.0,0.,12.0,0.,12.0
1980-11-13 18:01:27.660 ,7,1,0.,12.0,0.,12.0,0.,12.0,0.,12.0
1980-11-13 18:01:39.660 ,7,1,0.,12.0,0.,12.0,0.,12.0,0.,12.0
1980-11-13 18:01:51.660 ,7,0,0.,12.0,0.,12.0,0.,12.0,0.,12.0
1980-11-13 18:02:03.660 ,7,0,0.,12.0,0.,12.0,0.,12.0,0.,12.0
1980-11-13 18:02:15.660 ,6,1,0.,12.0,0.,12.0,0.,12.0,0.,12.0
1980-11-13 18:02:27.660 ,6,1,0.,12.0,0.,12.0,0.,12.0,0.,12.0
1980-11-13 18:02:39.660 ,6,0,0.,12.0,0.,12.0,0.,12.0,0.,12.0
1980-11-13 18:02:51.660 ,6,0,0.,12.0,0.,12.0,0.,12.0,0.,12.0
1980-11-13 18:03:03.660 ,5,1,0.,12.0,0.,12.0,0.,12.0,0.,12.0
1980-11-13 18:03:15.660 ,5,1,0.,12.0,0.,12.0,0.,12.0,0.,12.0
1980-11-13 18:03:27.660 ,5,0,0.,12.0,0.,12.0,0.,12.0,0.,12.0
1980-11-13 18:03:39.660 ,5,0,0.,12.0,0.,12.0,0.,12.0,0.,12.0
1980-11-13 18:03:51.660 ,4,1,0.,12.0,0.,12.0,0.,12.0,0.,12.0
1980-11-13 18:04:03.660 ,4,1,0.,12.0,0.,12.0,0.,12.0,0.,12.0
1980-11-13 18:04:15.660 ,4,0,0.,12.0,0.,12.0,0.,12.0,0.,12.0
1980-11-13 18:04:27.660 ,4,0,0.,12.0,0.,12.0,0.,12.0,0.,12.0
1980-11-13 18:04:39.660 ,3,1,0.,12.0,0.,12.0,0.,12.0,0.,12.0
1980-11-13 18:04:51.660 ,3,1,0.,12.0,0.,12.0,0.,12.0,0.,12.0
1980-11-13 18:05:03.660 ,3,0,0.,12.0,0.,12.0,0.,12.0,0.,12.0
1980-11-13 18:05:15.660 ,3,0,0.,12.0,0.,12.0,0.,12.0,0.,12.0
1980-11-13 18:05:27.660 ,2,1,0.,12.0,0.,12.0,0.,12.0,0.,12.0
1980-11-13 18:05:39.660 ,2,1,0.,12.0,0.,12.0,0.,12.0,0.,12.0
1980-11-13 18:05:51.660 ,2,0,0.,12.0,0.,12.0,0.,12.0,0.,12.0
1980-11-13 18:06:03.660 ,2,0,0.,12.0,0.,12.0,0.,12.0,0.,12.0
1980-11-13 18:06:15.660 ,1,1,0.,12.0,0.,12.0,0.,12.0,0.,12.0
1980-11-13 18:06:27.660 ,1,1,0.,12.0,0.,12.0,0.,12.0,0.,12.0
1980-11-13 18:06:39.660 ,1,0,0.,12.0,0.,12.0,0.,12.0,0.,12.0
1980-11-13 18:06:51.660 ,1,0,0.,12.0,0.,12.0,0.,12.0,0.,12.0
1980-11-13 18:07:03.660 ,0,1,0.,12.0,0.,12.0,0.,12.0,0.,12.0
1980-11-13 18:07:15.660 ,0,1,0.,12.0,0.,12.0,0.,12.0,0.,12.0
1980-11-13 18:07:27.660 ,0,0,0.,12.0,0.,12.0,0.,12.0,0.,12.0
1980-11-13 18:07:39.660 ,0,0,0.,12.0,0.,12.0,0.,12.0,0.,12.0
1980-11-13 18:07:51.660 ,0,1,0.,12.0,0.,12.0,0.,12.0,0.,12.0
1980-11-13 18:08:03.660 ,0,1,0.,12.0,0.,12.0,0.,12.0,0.,12.0
1980-11-13 18:08:15.660 ,0,0,0.,12.0,0.,12.0,0.,12.0,0.,12.0
1980-11-13 18:08:27.660 ,0,0,0.,12.0,0.,12.0,0.,12.0,0.,12.0
1980-11-13 18:08:39.660 ,1,1,0.,12.0,0.,12.0,0.,12.0,0.,12.0
1980-11-13 18:08:51.660 ,1,1,0.,12.0,0.,12.0,0.,12.0,0.,12.0
1980-11-13 18:09:03.660 ,1,0,0.,12.0,0.,12.0,0.,12.0,0.,12.0
1980-11-13 18:09:15.660 ,1,0,0.,12.0,0.,12.0,0.,12.0,0.,12.0
1980-11-13 18:09:27.660 ,2,1,0.,12.0,0.,12.0,0.,12.0,0.,12.0
1980-11-13 18:09:39.660 ,2,1,0.,12.0,0.,12.0,0.,12.0,0.,12.0
1980-11-13 18:09:51.660 ,2,0,0.,12.0,0.,12.0,0.,12.0,0.,12.0
1980-11-13 18:10:03.660 ,2,0,0.,12.0,0.,12.0,0.,12.0,0.,12.0
1980-11-13 18:10:15.660 ,3,1,0.,12.0,0.,12.0,0.,12.0,0.,12.0
1980-11-13 18:10:27.660 ,3,1,0.,12.0,0.,12.0,0.,12.0,0.,12.0
1980-11-13 18:10:39.660 ,3,0,0.,12.0,0.,12.0,0.,12.0,0.,12.0
1980-11-13 18:10:51.660 ,3,0,0.,12.0,0.,12.0,0.,12.0,0.,12.0
1980-11-13 18:11:03.660 ,4,1,0.,12.0,0.,12.0,0.,12.0,0.,12.0
1980-11-13 18:11:15.660 ,4,1,0.,12.0,0.,12.0,0.,12.0,0.,12.0
1980-11-13 18:11:27.660 ,4,0,0.,12.0,0.,12.0,0.,12.0,0.,12.0
1980-11-13 18:11:39.660 ,4,0,0.,12.0,0.,12.0,0.,12.0,0.,12.0
1980-11-13 18:11:51.660 ,5,1,0.,12.0,0.,12.0,0.,12.0,0.,12.0
1980-11-13 18:12:03.660 ,5,1,0.,12.0,0.,12.0,0.,12.0,0.,12.0
1980-11-13 18:12:15.660 ,5,0,0.,12.0,0.,12.0,0.,12.0,0.,12.0
1980-11-13 18:12:27.660 ,5,0,0.,12.0,0.,12.0,0.,12.0,0.,12.0
1980-11-13 18:12:39.660 ,6,1,0.,12.0,0.,12.0,0.,12.0,0.,12.0
1980-11-13 18:12:51.660 ,6,1,0.,12.0,0.,12.0,0.,12.0,0.,12.0
1980-11-13 18:13:03.660 ,6,0,0.,12.0,0.,12.0,0.,12.0,0.,12.0
1980-11-13 18:13:15.660 ,6,0,0.,12.0,0.,12.0,0.,12.0,0.,12.0
1980-11-13 18:13:27.660 ,7,1,0.,12.0,0.,12.0,0.,12.0,0.,12.0
1980-11-13 18:13:39.660 ,7,1,0.,12.0,0.,12.0,0.,12.0,0.,12.0
1980-11-13 18:13:51.660 ,7,0,0.,12.0,0.,12.0,0.,12.0,0.,12.0
1980-11-13 18:14:03.660 ,7,0,0.,12.0,0.,12.0,0.,12.0,0.,12.0
1980-11-13 18:14:15.660 ,7,1,0.,12.0,0.,12.0,0.,12.0,0.,12.0
1980-11-13 18:14:27.660 ,7,1,0.,12.0,0.,12.0,0.,12.0,0.,12.0
1980-11-13 18:14:39.660 ,7,0,0.,12.0,0.,12.0,0.,12.0,0.,12.0
1980-11-13 18:14:51.660 ,7,0,0.,12.0,0.,12.0,0.,12.0,0.,12.0
1980-11-13 18:15:03.660 ,6,1,0.,12.0,0.,12.0,0.,12.0,0.,12.0
1980-11-13 18:15:15.660 ,6,1,0.,12.0,0.,12.0,0.,12.0,0.,12.0
1980-11-13 18:15:27.660 ,6,0,0.,12.0,0.,12.0,0.,12.0,0.,12.0
1980-11-13 18:15:39.660 ,6,0,0.,12.0,0.,12.0,0.,12.0,0.,12.0
1980-11-13 18:15:51.660 ,5,1,0.,12.0,0.,12.0,0.,12.0,0.,12.0
1980-11-13 18:16:03.660 ,5,1,0.,12.0,0.,12.0,0.,12.0,0.,12.0
1980-11-13 18:16:15.660 ,5,0,0.,12.0,0.,12.0,0.,12.0,0.,12.0
1980-11-13 18:16:27.660 ,5,0,0.,12.0,0.,12.0,0.,12.0,0.,12.0
1980-11-13 18:16:39.660 ,4,1,0.,12.0,0.,12.0,0.,12.0,0.,12.0
1980-11-13 18:16:51.660 ,4,1,0.,12.0,0.,12.0,0.,12.0,0.,12.0
1980-11-13 18:17:03.660 ,4,0,0.,12.0,0.,12.0,0.,12.0,0.,12.0
1980-11-13 18:17:15.660 ,4,0,0.,12.0,0.,12.0,0.,12.0,0.,12.0
1980-11-13 18:17:27.660 ,3,1,0.,12.0,0.,12.0,0.,12.0,0.,12.0
1980-11-13 18:17:39.660 ,3,1,0.,12.0,0.,12.0,0.,12.0,0.,12.0
1980-11-13 18:17:51.660 ,3,0,0.,12.0,0.,12.0,0.,12.0,0.,12.0
1980-11-13 18:18:03.660 ,3,0,0.,12.0,0.,12.0,0.,12.0,0.,12.0
1980-11-13 18:18:15.660 ,2,1,0.,12.0,0.,12.0,0.,12.0,0.,12.0
1980-11-13 18:18:27.660 ,2,1,0.,12.0,0.,12.0,0.,12.0,0.,12.0
1980-11-13 18:18:39.660 ,2,0,0.,12.0,0.,12.0,0.,12.0,0.,12.0
1980-11-13 18:18:51.660 ,2,0,0.,12.0,0.,12.0,0.,12.0,0.,12.0
1980-11-13 18:19:03.660 ,1,1,0.,12.0,0.,12.0,0.,12.0,0.,12.0
1980-11-13 18:19:15.660 ,1,1,0.,12.0,0.,12.0,0.,12.0,0.,12.0
1980-11-13 18:19:27.660 ,1,0,0.,12.0,0.,12.0,0.,12.0,0.,12.0
1980-11-13 18:19:39.660 ,1,0,0.,12.0,0.,12.0,0.,12.0,0.,12.0
1980-11-13 18:19:51.660 ,0,1,0.,12.0,0.,12.0,0.,12.0,0.,12.0
1980-11-13 18:20:03.660 ,0,1,0.,12.0,0.,12.0,0.,12.0,0.,12.0
1980-11-13 18:20:15.660 ,0,0,0.,12.0,0.,12.0,0.,12.0,0.,12.0
1980-11-13 18:20:27.660 ,0,0,0.,12.0,0.,12.0,0.,12.0,0.,12.0
1980-11-13 18:20:39.660 ,0,1,0.,12.0,0.,12.0,0.,12.0,0.,12.0
1980-11-13 18:20:51.660 ,0,1,0.,12.0,0.,12.0,0.,12.0,0.,12.0
1980-11-13 18:21:03.660 ,0,0,0.,12.0,0.,12.0,0.,12.0,0.,12.0
1980-11-13 18:21:15.660 ,0,0,0.,12.0,0.,12.0,0.,12.0,0.,12.0
1980-11-13 18:21:27.660 ,1,1,0.,12.0,0.,12.0,0.,12.0,0.,12.0
1980-11-13 18:21:39.660 ,1,1,0.,12.0,0.,12.0,0.,12.0,0.,12.0
1980-11-13 18:21:51.660 ,1,0,0.,12.0,0.,12.0,0.,12.0,0.,12.0
1980-11-13 18:22:03.660 ,1,0,0.,12.0,0.,12.0,0.,12.0,0.,12.0
1980-11-13 18:22:15.660 ,2,1,0.,12.0,0.,12.0,0.,12.0,0.,12.0
1980-11-13 18:22:27.660 ,2,1,0.,12.0,0.,12.0,0.,12.0,0.,12.0
1980-11-13 18:22:39.660 ,2,0,0.,12.0,0.,12.0,0.,12.0,0.,12.0
1980-11-13 18:22:51.660 ,2,0,0.,12.0,0.,12.0,0.,12.0,0.,12.0
1980-11-13 18:23:03.660 ,3,1,0.,12.0,0.,12.0,0.,12.0,0.,12.0
1980-11-13 18:23:15.660 ,3,1,0.,12.0,0.,12.0,0.,12.0,0.,12.0
1980-11-13 18:23:27.660 ,3,0,0.,12.0,0.,12.0,0.,12.0,0.,12.0
1980-11-13 18:23:39.660 ,3,0,0.,12.0,0.,12.0,0.,12.0,0.,12.0
1980-11-13 18:23:51.660 ,4,1,0.,12.0,0.,12.0,0.,12.0,0.,12.0
1980-11-13 18:24:03.660 ,4,1,0.,12.0,0.,12.0,0.,12.0,0.,12.0
1980-11-13 18:24:15.660 ,4,0,0.,12.0,0.,12.0,0.,12.0,0.,12.0
1980-11-13 18:24:27.660 ,4,0,0.,12.0,0.,12.0,0.,12.0,0.,12.0
1980-11-13 18:24:39.660 ,5,1,0.,12.0,0.,12.0,0.,12.0,0.,12.0
1980-11-13 18:24:51.660 ,5,1,0.,12.0,0.,12.0,0.,12.0,0.,12.0
1980-11-13 18:25:03.660 ,5,0,0.,12.0,0.,12.0,0.,12.0,0.,12.0
1980-11-13 18:25:15.660 ,5,0,0.,12.0,0.,12.0,0.,12.0,0.,12.0
1980-11-13 18:25:27.660 ,6,1,0.,12.0,0.,12.0,0.,12.0,0.,12.0
1980-11-13 18:25:39.660 ,6,1,0.,12.0,0.,12.0,0.,12.0,0.,12.0
1980-11-13 18:25:51.660 ,6,0,0.,12.0,0.,12.0,0.,12.0,0.,12.0
1980-11-13 18:26:03.660 ,6,0,0.,12.0,0.,12.0,0.,12.0,0.,12.0
1980-11-13 18:26:15.660 ,7,1,0.,12.0,0.,12.0,0.,12.0,0.,12.0
1980-11-13 18:26:27.660 ,7,1,0.,12.0,0.,12.0,0.,12.0,0.,12.0
1980-11-13 18:26:39.660 ,7,0,0.,12.0,0.,12.0,0.,12.0,0.,12.0
1980-11-13 18:26:51.660 ,7,0,0.,12.0,0.,12.0,0.,12.0,0.,12.0
1980-11-13 18:27:03.660 ,7,1,0.,12.0,0.,12.0,0.,12.0,0.,12.0
1980-11-13 18:27:15.660 ,7,1,0.,12.0,0.,12.0,0.,12.0,0.,12.0
1980-11-13 18:27:27.660 ,7,0,0.,12.0,0.,12.0,0.,12.0,0.,12.0
1980-11-13 18:27:39.660 ,7,0,0.,12.0,0.,12.0,0.,12.0,0.,12.0
1980-11-13 18:27:51.660 ,6,1,0.,12.0,0.,12.0,0.,12.0,0.,12.0
1980-11-13 18:28:03.660 ,6,1,0.,12.0,0.,12.0,0.,12.0,0.,12.0
1980-11-13 18:28:15.660 ,6,0,0.,12.0,0.,12.0,0.,12.0,0.,12.0
1980-11-13 18:28:27.660 ,6,0,0.,12.0,0.,12.0,0.,12.0,0.,12.0
1980-11-13 18:28:39.660 ,5,1,0.,12.0,0.,12.0,0.,12.0,0.,12.0
1980-11-13 18:28:51.660 ,5,1,0.,12.0,0.,12.0,0.,12.0,0.,12.0
1980-11-13 18:29:03.660 ,0,0,0.,12.0,0.,12.0,0.,12.0,0.,12.0
1980-11-13 18:29:15.660 ,0,0,0.,12.0,0.,12.0,0.,12.0,0.,12.0
1980-11-13 18:30:36.060 ,0,0,,0,,0,,0,,0
1980-11-13 18:30:48.060 ,0,0,,0,,0,,0,,0
1980-11-13 18:30:39.660 ,0,0,0.,12.0,0.,12.0,0.,12.0,0.,12.0
1980-11-13 18:30:51.660 ,0,0,0.,12.0,0.,12.0,0.,12.0,0.,12.0
1980-11-13 18:31:03.660 ,2,1,0.,12.0,0.,12.0,0.,12.0,0.,12.0
1980-11-13 18:31:15.660 ,2,1,0.,12.0,0.,12.0,0.,12.0,0.,12.0
1980-11-13 18:31:27.660 ,2,0,0.,12.0,0.,12.0,0.,12.0,0.,12.0
1980-11-13 18:31:39.660 ,2,0,0.,12.0,0.,12.0,0.,12.0,0.,12.0
1980-11-13 18:31:51.660 ,1,1,0.,12.0,0.,12.0,0.,12.0,0.,12.0
1980-11-13 18:32:03.660 ,1,1,0.,12.0,0.,12.0,0.,12.0,0.,12.0
1980-11-13 18:32:15.660 ,1,0,0.,12.0,0.,12.0,0.,12.0,0.,12.0
1980-11-13 18:32:27.660 ,1,0,0.,12.0,0.,12.0,0.,12.0,0.,12.0
1980-11-13 18:32:39.660 ,0,1,0.,12.0,0.,12.0,0.,12.0,0.,12.0
1980-11-13 18:32:51.660 ,0,1,0.,12.0,0.,12.0,0.,12.0,0.,12.0
1980-11-13 18:33:03.660 ,0,0,0.,12.0,0.,12.0,0.,12.0,0.,12.0
1980-11-13 18:33:15.660 ,0,0,0.,12.0,0.,12.0,0.,12.0,0.,12.0
1980-11-13 18:33:27.660 ,0,1,0.,12.0,0.,12.0,0.,12.0,0.,12.0
1980-11-13 18:33:39.660 ,0,1,0.,12.0,0.,12.0,0.,12.0,0.,12.0
1980-11-13 18:33:51.660 ,0,0,0.,12.0,0.,12.0,0.,12.0,0.,12.0
1980-11-13 18:34:03.660 ,0,0,0.,12.0,0.,12.0,0.,12.0,0.,12.0
1980-11-13 18:34:15.660 ,1,1,0.,12.0,0.,12.0,0.,12.0,0.,12.0
1980-11-13 18:34:27.660 ,1,1,0.,12.0,0.,12.0,0.,12.0,0.,12.0
1980-11-13 18:34:39.660 ,1,0,0.,12.0,0.,12.0,0.,12.0,0.,12.0
1980-11-13 18:34:51.660 ,1,0,0.,12.0,0.,12.0,0.,12.0,0.,12.0
1980-11-13 18:35:03.660 ,2,1,0.,12.0,0.,12.0,0.,12.0,0.,12.0
1980-11-13 18:35:15.660 ,2,1,0.,12.0,0.,12.0,0.,12.0,0.,12.0
1980-11-13 18:35:27.660 ,2,0,0.,12.0,0.,12.0,0.,12.0,0.,12.0
1980-11-13 18:35:39.660 ,2,0,0.,12.0,0.,12.0,0.,12.0,0.,12.0
1980-11-13 18:35:51.660 ,3,1,0.,12.0,0.,12.0,0.,12.0,0.,12.0
1980-11-13 18:36:03.660 ,3,1,0.,12.0,0.,12.0,0.,12.0,0.,12.0
1980-11-13 18:36:15.660 ,3,0,0.,12.0,0.,12.0,0.,12.0,0.,12.0
1980-11-13 18:36:27.660 ,3,0,0.,12.0,0.,12.0,0.,12.0,0.,12.0
1980-11-13 18:36:39.660 ,4,1,0.,12.0,0.,12.0,0.,12.0,0.,12.0
1980-11-13 18:36:51.660 ,4,1,0.,12.0,0.,12.0,0.,12.0,0.,12.0
1980-11-13 18:37:03.660 ,4,0,0.,12.0,0.,12.0,0.,12.0,0.,12.0
1980-11-13 18:37:15.660 ,4,0,0.,12.0,0.,12.0,0.,12.0,0.,12.0
1980-11-13 18:37:27.660 ,5,1,0.,12.0,0.,12.0,0.,12.0,0.,12.0
1980-11-13 18:37:39.660 ,5,1,0.,12.0,0.,12.0,0.,12.0,0.,12.0
1980-11-13 18:37:51.660 ,5,0,0.,12.0,0.,12.0,0.,12.0,0.,12.0
1980-11-13 18:38:03.660 ,5,0,0.,12.0,0.,12.0,0.,12.0,0.,12.0
1980-11-13 18:38:15.660 ,6,1,0.,12.0,0.,12.0,0.,12.0,0.,12.0
1980-11-13 18:38:27.660 ,6,1,0.,12.0,0.,12.0,0.,12.0,0.,12.0
1980-11-13 18:38:39.660 ,6,0,0.,12.0,0.,12.0,0.,12.0,0.,12.0
1980-11-13 18:38:51.660 ,6,0,0.,12.0,0.,12.0,0.,12.0,0.,12.0
1980-11-13 18:39:03.660 ,7,1,0.,12.0,0.,12.0,0.,12.0,0.,12.0
1980-11-13 18:39:15.660 ,7,1,0.,12.0,0.,12.0,0.,12.0,0.,12.0
1980-11-13 18:39:27.660 ,7,0,0.,12.0,0.,12.0,0.,12.0,0.,12.0
1980-11-13 18:39:39.660 ,7,0,0.,12.0,0.,12.0,0.,12.0,0.,12.0
1980-11-13 18:39:51.660 ,7,1,0.,12.0,0.,12.0,0.,12.0,0.,12.0
1980-11-13 18:40:03.660 ,7,1,0.,12.0,0.,12.0,0.,12.0,0.,12.0
1980-11-13 18:40:15.660 ,7,0,0.,12.0,0.,12.0,0.,12.0,0.,12.0
1980-11-13 18:40:27.660 ,7,0,0.,12.0,0.,12.0,0.,12.0,0.,12.0
1980-11-13 18:40:39.660 ,6,1,0.,12.0,0.,12.0,0.,12.0,0.,12.0
1980-11-13 18:40:51.660 ,6,1,0.,12.0,0.,12.0,0.,12.0,0.,12.0
1980-11-13 18:41:03.660 ,6,0,0.,12.0,0.,12.0,0.,12.0,0.,12.0
1980-11-13 18:41:15.660 ,6,0,0.,12.0,0.,12.0,0.,12.0,0.,12.0
1980-11-13 18:41:27.660 ,5,1,0.,12.0,0.,12.0,0.,12.0,0.,12.0
1980-11-13 18:41:39.660 ,5,1,0.,12.0,0.,12.0,0.,12.0,0.,12.0
1980-11-13 18:41:51.660 ,5,0,0.,12.0,0.,12.0,0.,12.0,0.,12.0
1980-11-13 18:42:03.660 ,5,0,1.,12.0,0.,12.0,0.,12.0,0.,12.0
1980-11-13 18:42:15.660 ,4,1,0.,12.0,0.,12.0,0.,12.0,0.,12.0
1980-11-13 18:42:27.660 ,4,1,0.,12.0,0.,12.0,0.,12.0,0.,12.0
1980-11-13 18:42:39.660 ,4,0,0.,12.0,0.,12.0,0.,12.0,0.,12.0
1980-11-13 18:42:51.660 ,4,0,0.,12.0,0.,12.0,0.,12.0,0.,12.0
1980-11-13 18:43:03.660 ,3,1,0.,12.0,0.,12.0,0.,12.0,0.,12.0
1980-11-13 18:43:15.660 ,3,1,0.,12.0,0.,12.0,0.,12.0,0.,12.0
1980-11-13 18:43:27.660 ,3,0,0.,12.0,0.,12.0,0.,12.0,0.,12.0
1980-11-13 18:43:39.660 ,3,0,0.,12.0,0.,12.0,0.,12.0,0.,12.0
1980-11-13 18:43:51.660 ,2,1,0.,12.0,0.,12.0,0.,12.0,0.,12.0
1980-11-13 18:44:03.660 ,2,1,0.,12.0,0.,12.0,0.,12.0,0.,12.0
1980-11-13 18:44:15.660 ,2,0,0.,12.0,0.,12.0,0.,12.0,0.,12.0
1980-11-13 18:44:27.660 ,2,0,0.,12.0,0.,12.0,0.,12.0,0.,12.0
1980-11-13 18:44:39.660 ,1,1,0.,12.0,0.,12.0,0.,12.0,0.,12.0
1980-11-13 18:44:51.660 ,1,1,0.,12.0,0.,12.0,0.,12.0,0.,12.0
1980-11-13 18:45:03.660 ,1,0,0.,12.0,0.,12.0,0.,12.0,0.,12.0
1980-11-13 18:45:15.660 ,1,0,0.,12.0,0.,12.0,0.,12.0,0.,12.0
1980-11-13 18:45:27.660 ,0,1,0.,12.0,0.,12.0,0.,12.0,0.,12.0
1980-11-13 18:45:39.660 ,0,1,0.,12.0,0.,12.0,0.,12.0,0.,12.0
1980-11-13 18:45:51.660 ,0,0,0.,12.0,0.,12.0,0.,12.0,0.,12.0
1980-11-13 18:46:03.660 ,0,0,0.,12.0,0.,12.0,0.,12.0,0.,12.0
1980-11-13 18:46:15.660 ,0,1,0.,12.0,0.,12.0,0.,12.0,0.,12.0
1980-11-13 18:46:27.660 ,0,1,0.,12.0,0.,12.0,0.,12.0,0.,12.0
1980-11-13 18:46:39.660 ,0,0,0.,12.0,0.,12.0,0.,12.0,0.,12.0
1980-11-13 18:46:51.660 ,0,0,0.,12.0,0.,12.0,0.,12.0,0.,12.0
1980-11-13 18:47:03.660 ,1,1,0.,12.0,0.,12.0,0.,12.0,0.,12.0
1980-11-13 18:47:15.660 ,1,1,0.,12.0,0.,12.0,0.,12.0,0.,12.0
1980-11-13 18:47:27.660 ,1,0,0.,12.0,0.,12.0,0.,12.0,0.,12.0
1980-11-13 18:47:39.660 ,1,0,0.,12.0,0.,12.0,0.,12.0,0.,12.0
1980-11-13 18:47:51.660 ,2,1,0.,12.0,0.,12.0,0.,12.0,0.,12.0
1980-11-13 18:48:03.660 ,2,1,0.,12.0,0.,12.0,0.,12.0,0.,12.0
1980-11-13 18:48:15.660 ,2,0,0.,12.0,0.,12.0,0.,12.0,0.,12.0
1980-11-13 18:48:27.660 ,2,0,0.,12.0,0.,12.0,0.,12.0,0.,12.0
1980-11-13 18:48:39.660 ,3,1,0.,12.0,0.,12.0,0.,12.0,0.,12.0
1980-11-13 18:48:51.660 ,3,1,0.,12.0,0.,12.0,0.,12.0,0.,12.0
1980-11-13 18:49:03.660 ,3,0,0.,12.0,0.,12.0,0.,12.0,0.,12.0
1980-11-13 18:49:15.660 ,3,0,0.,12.0,0.,12.0,0.,12.0,0.,12.0
1980-11-13 18:49:27.660 ,4,1,0.,12.0,0.,12.0,0.,12.0,0.,12.0
1980-11-13 18:49:39.660 ,4,1,0.,12.0,0.,12.0,0.,12.0,0.,12.0
1980-11-13 18:49:51.660 ,4,0,0.,12.0,0.,12.0,0.,12.0,0.,12.0
1980-11-13 18:50:03.660 ,4,0,0.,12.0,0.,12.0,0.,12.0,0.,12.0
1980-11-13 18:50:15.660 ,5,1,0.,12.0,0.,12.0,0.,12.0,0.,12.0
1980-11-13 18:50:27.660 ,5,1,0.,12.0,0.,12.0,0.,12.0,0.,12.0
1980-11-13 18:50:39.660 ,5,0,0.,12.0,0.,12.0,0.,12.0,0.,12.0
1980-11-13 18:50:51.660 ,5,0,0.,12.0,0.,12.0,0.,12.0,0.,12.0
1980-11-13 18:51:03.660 ,6,1,0.,12.0,0.,12.0,0.,12.0,0.,12.0
1980-11-13 18:51:15.660 ,6,1,0.,12.0,0.,12.0,0.,12.0,0.,12.0
1980-11-13 18:51:27.660 ,6,0,0.,12.0,0.,12.0,0.,12.0,0.,12.0
1980-11-13 18:51:39.660 ,6,0,0.,12.0,0.,12.0,0.,12.0,0.,12.0
1980-11-13 18:51:51.660 ,7,1,0.,12.0,0.,12.0,0.,12.0,0.,12.0
1980-11-13 18:52:03.660 ,7,1,0.,12.0,0.,12.0,0.,12.0,0.,12.0
1980-11-13 18:52:15.660 ,7,0,0.,12.0,0.,12.0,0.,12.0,0.,12.0
1980-11-13 18:52:27.660 ,7,0,0.,12.0,0.,12.0,0.,12.0,0.,12.0
1980-11-13 18:52:39.660 ,7,1,0.,12.0,0.,12.0,0.,12.0,0.,12.0
1980-11-13 18:52:51.660 ,7,1,0.,12.0,0.,12.0,0.,12.0,0.,12.0
1980-11-13 18:53:03.660 ,7,0,0.,12.0,0.,12.0,0.,12.0,0.,12.0
1980-11-13 18:53:15.660 ,7,0,0.,12.0,0.,12.0,0.,12.0,0.,12.0
1980-11-13 18:53:27.660 ,6,1,0.,12.0,0.,12.0,0.,12.0,0.,12.0
1980-11-13 18:53:39.660 ,6,1,0.,12.0,0.,12.0,0.,12.0,0.,12.0
1980-11-13 18:53:51.660 ,6,0,0.,12.0,0.,12.0,0.,12.0,0.,12.0
1980-11-13 18:54:03.660 ,6,0,0.,12.0,0.,12.0,0.,12.0,0.,12.0
1980-11-13 18:54:15.660 ,5,1,0.,12.0,0.,12.0,0.,12.0,0.,12.0
1980-11-13 18:54:27.660 ,5,1,0.,12.0,0.,12.0,0.,12.0,0.,12.0
1980-11-13 18:54:39.660 ,5,0,0.,12.0,0.,12.0,0.,12.0,0.,12.0
1980-11-13 18:54:51.660 ,5,0,0.,12.0,0.,12.0,0.,12.0,0.,12.0
1980-11-13 18:55:03.660 ,4,1,0.,12.0,0.,12.0,0.,12.0,0.,12.0
1980-11-13 18:55:15.660 ,4,1,0.,12.0,0.,12.0,0.,12.0,0.,12.0
1980-11-13 18:55:27.660 ,4,0,0.,12.0,0.,12.0,0.,12.0,0.,12.0
1980-11-13 18:55:39.660 ,4,0,0.,12.0,0.,12.0,0.,12.0,0.,12.0
1980-11-13 18:55:51.660 ,3,1,0.,12.0,0.,12.0,0.,12.0,0.,12.0
1980-11-13 18:56:03.660 ,3,1,0.,12.0,0.,12.0,0.,12.0,0.,12.0
1980-11-13 18:56:15.660 ,3,0,0.,12.0,0.,12.0,0.,12.0,0.,12.0
1980-11-13 18:56:27.660 ,3,0,0.,12.0,0.,12.0,0.,12.0,0.,12.0
1980-11-13 18:56:39.660 ,2,1,0.,12.0,0.,12.0,0.,12.0,0.,12.0
1980-11-13 18:56:51.660 ,2,1,0.,12.0,0.,12.0,0.,12.0,0.,12.0
1980-11-13 18:57:03.660 ,2,0,0.,12.0,0.,12.0,0.,12.0,0.,12.0
1980-11-13 18:57:15.660 ,2,0,0.,12.0,0.,12.0,0.,12.0,0.,12.0
1980-11-13 18:57:27.660 ,1,1,0.,12.0,0.,12.0,0.,12.0,0.,12.0
1980-11-13 18:57:39.660 ,1,1,0.,12.0,0.,12.0,0.,12.0,0.,12.0
1980-11-13 18:57:51.660 ,1,0,0.,12.0,0.,12.0,0.,12.0,0.,12.0
1980-11-13 18:58:03.660 ,1,0,0.,12.0,0.,12.0,0.,12.0,0.,12.0
1980-11-13 18:58:15.660 ,0,1,0.,12.0,0.,12.0,0.,12.0,0.,12.0
1980-11-13 18:58:27.660 ,0,1,0.,12.0,0.,12.0,0.,12.0,0.,12.0
1980-11-13 18:58:39.660 ,0,0,0.,12.0,0.,12.0,0.,12.0,0.,12.0
1980-11-13 18:58:51.660 ,0,0,0.,12.0,0.,12.0,0.,12.0,0.,12.0
1980-11-13 18:59:03.660 ,0,1,0.,12.0,0.,12.0,0.,12.0,0.,12.0
1980-11-13 18:59:15.660 ,0,1,0.,12.0,0.,12.0,0.,12.0,0.,12.0
1980-11-13 18:59:27.660 ,0,0,0.,12.0,0.,12.0,0.,12.0,0.,12.0
1980-11-13 18:59:39.660 ,0,0,0.,12.0,0.,12.0,0.,12.0,0.,12.0
1980-11-13 18:59:51.660 ,1,1,0.,12.0,0.,12.0,0.,12.0,0.,12.0
1980-11-13 19:00:03.660 ,1,1,0.,12.0,0.,12.0,0.,12.0,0.,12.0
1980-11-13 19:00:15.660 ,1,0,0.,12.0,0.,12.0,0.,12.0,0.,12.0
1980-11-13 19:00:27.660 ,1,0,0.,12.0,0.,12.0,0.,12.0,0.,12.0
1980-11-13 19:00:39.660 ,2,1,0.,12.0,0.,12.0,0.,12.0,0.,12.0
1980-11-13 19:00:51.660 ,2,1,0.,12.0,0.,12.0,0.,12.0,0.,12.0
1980-11-13 19:01:03.660 ,2,0,0.,12.0,0.,12.0,0.,12.0,0.,12.0
1980-11-13 19:01:15.660 ,2,0,0.,12.0,0.,12.0,0.,12.0,0.,12.0
1980-11-13 19:01:27.660 ,3,1,0.,12.0,0.,12.0,0.,12.0,0.,12.0
1980-11-13 19:01:39.660 ,3,1,0.,12.0,0.,12.0,0.,12.0,0.,12.0
1980-11-13 19:01:51.660 ,3,0,0.,12.0,0.,12.0,0.,12.0,0.,12.0
1980-11-13 19:02:03.660 ,3,0,0.,12.0,0.,12.0,0.,12.0,0.,12.0
1980-11-13 19:02:15.660 ,4,1,0.,12.0,0.,12.0,0.,12.0,0.,12.0
1980-11-13 19:02:27.660 ,4,1,0.,12.0,0.,12.0,0.,12.0,0.,12.0
1980-11-13 19:02:39.660 ,4,0,0.,12.0,0.,12.0,0.,12.0,0.,12.0
1980-11-13 19:02:51.660 ,4,0,0.,12.0,0.,12.0,0.,12.0,0.,12.0
1980-11-13 19:03:03.660 ,5,1,0.,12.0,0.,12.0,0.,12.0,0.,12.0
1980-11-13 19:03:15.660 ,5,1,0.,12.0,0.,12.0,0.,12.0,0.,12.0
1980-11-13 19:03:27.660 ,5,0,0.,12.0,0.,12.0,0.,12.0,0.,12.0
1980-11-13 19:03:39.660 ,5,0,0.,12.0,0.,12.0,0.,12.0,0.,12.0
1980-11-13 19:03:51.660 ,6,1,0.,12.0,0.,12.0,0.,12.0,0.,12.0
1980-11-13 19:04:03.660 ,6,1,0.,12.0,0.,12.0,0.,12.0,0.,12.0
1980-11-13 19:04:15.660 ,6,0,0.,12.0,0.,12.0,0.,12.0,0.,12.0
1980-11-13 19:04:27.660 ,6,0,0.,12.0,0.,12.0,0.,12.0,0.,12.0
1980-11-13 19:04:39.660 ,7,1,0.,12.0,0.,12.0,0.,12.0,0.,12.0
1980-11-13 19:04:51.660 ,7,1,0.,12.0,0.,12.0,0.,12.0,0.,12.0
1980-11-13 19:05:03.660 ,7,0,0.,12.0,0.,12.0,0.,12.0,0.,12.0
1980-11-13 19:05:15.660 ,7,0,0.,12.0,0.,12.0,0.,12.0,0.,12.0
1980-11-13 19:05:27.660 ,7,1,0.,12.0,0.,12.0,0.,12.0,0.,12.0
1980-11-13 19:05:39.660 ,7,1,0.,12.0,0.,12.0,0.,12.0,0.,12.0
1980-11-13 19:05:51.660 ,7,0,0.,12.0,0.,12.0,0.,12.0,0.,12.0
1980-11-13 19:06:03.660 ,7,0,0.,12.0,0.,12.0,0.,12.0,0.,12.0
1980-11-13 19:06:15.660 ,6,1,0.,12.0,0.,12.0,0.,12.0,0.,12.0
1980-11-13 19:06:27.660 ,6,1,0.,12.0,0.,12.0,0.,12.0,0.,12.0
1980-11-13 19:06:39.660 ,6,0,0.,12.0,0.,12.0,0.,12.0,0.,12.0
1980-11-13 19:06:51.660 ,6,0,0.,12.0,0.,12.0,0.,12.0,0.,12.0
1980-11-13 19:07:03.660 ,5,1,0.,12.0,0.,12.0,0.,12.0,0.,12.0
1980-11-13 19:07:15.660 ,5,1,0.,12.0,0.,12.0,0.,12.0,0.,12.0
1980-11-13 19:07:27.660 ,5,0,0.,12.0,0.,12.0,0.,12.0,0.,12.0
1980-11-13 19:07:39.660 ,5,0,0.,12.0,0.,12.0,0.,12.0,0.,12.0
1980-11-13 19:07:51.660 ,4,1,0.,12.0,0.,12.0,0.,12.0,0.,12.0
1980-11-13 19:08:03.660 ,4,1,0.,12.0,0.,12.0,0.,12.0,0.,12.0
1980-11-13 19:08:15.660 ,4,0,0.,12.0,0.,12.0,0.,12.0,0.,12.0
1980-11-13 19:08:27.660 ,4,0,0.,12.0,0.,12.0,0.,12.0,0.,12.0
1980-11-13 19:08:39.660 ,3,1,0.,12.0,0.,12.0,0.,12.0,0.,12.0
1980-11-13 19:08:51.660 ,3,1,0.,12.0,0.,12.0,0.,12.0,0.,12.0
1980-11-13 19:09:03.660 ,3,0,0.,12.0,0.,12.0,0.,12.0,0.,12.0
1980-11-13 19:09:15.660 ,3,0,0.,12.0,0.,12.0,0.,12.0,0.,12.0
1980-11-13 19:09:27.660 ,2,1,0.,12.0,0.,12.0,0.,12.0,0.,12.0
1980-11-13 19:09:39.660 ,2,1,0.,12.0,0.,12.0,0.,12.0,0.,12.0
1980-11-13 19:09:51.660 ,2,0,0.,12.0,0.,12.0,0.,12.0,0.,12.0
1980-11-13 19:10:03.660 ,2,0,0.,12.0,0.,12.0,0.,12.0,0.,12.0
1980-11-13 19:10:15.660 ,1,1,0.,12.0,0.,12.0,0.,12.0,0.,12.0
1980-11-13 19:10:27.660 ,1,1,0.,12.0,0.,12.0,0.,12.0,0.,12.0
1980-11-13 19:10:39.660 ,1,0,0.,12.0,0.,12.0,0.,12.0,0.,12.0
1980-11-13 19:10:51.660 ,1,0,0.,12.0,0.,12.0,0.,12.0,0.,12.0
1980-11-13 19:11:03.660 ,0,1,0.,12.0,0.,12.0,0.,12.0,0.,12.0
1980-11-13 19:11:15.660 ,0,1,0.,12.0,0.,12.0,0.,12.0,0.,12.0
1980-11-13 19:11:27.660 ,0,0,0.,12.0,0.,12.0,0.,12.0,0.,12.0
1980-11-13 19:11:39.660 ,0,0,0.,12.0,0.,12.0,0.,12.0,0.,12.0
1980-11-13 19:11:51.660 ,0,1,0.,12.0,0.,12.0,0.,12.0,0.,12.0
1980-11-13 19:12:03.660 ,0,1,0.,12.0,0.,12.0,0.,12.0,0.,12.0
1980-11-13 19:12:15.660 ,0,0,0.,12.0,0.,12.0,0.,12.0,0.,12.0
1980-11-13 19:12:27.660 ,0,0,0.,12.0,0.,12.0,0.,12.0,0.,12.0
1980-11-13 19:12:39.660 ,1,1,0.,12.0,0.,12.0,0.,12.0,0.,12.0
1980-11-13 19:12:51.660 ,1,1,0.,12.0,0.,12.0,0.,12.0,0.,12.0
1980-11-13 19:13:03.660 ,1,0,0.,12.0,0.,12.0,0.,12.0,0.,12.0
1980-11-13 19:13:15.660 ,1,0,0.,12.0,0.,12.0,0.,12.0,0.,12.0
1980-11-13 19:13:27.660 ,2,1,0.,12.0,0.,12.0,0.,12.0,0.,12.0
1980-11-13 19:13:39.660 ,2,1,0.,12.0,0.,12.0,0.,12.0,0.,12.0
1980-11-13 19:13:51.660 ,2,0,0.,12.0,0.,12.0,0.,12.0,0.,12.0
1980-11-13 19:14:03.660 ,2,0,0.,12.0,0.,12.0,0.,12.0,0.,12.0
1980-11-13 19:14:15.660 ,3,1,0.,12.0,0.,12.0,0.,12.0,0.,12.0
1980-11-13 19:14:27.660 ,3,1,0.,12.0,0.,12.0,0.,12.0,0.,12.0
1980-11-13 19:14:39.660 ,3,0,0.,12.0,0.,12.0,0.,12.0,0.,12.0
1980-11-13 19:14:51.660 ,3,0,0.,12.0,0.,12.0,0.,12.0,0.,12.0
1980-11-13 19:15:03.660 ,4,1,0.,12.0,0.,12.0,0.,12.0,0.,12.0
1980-11-13 19:15:15.660 ,4,1,0.,12.0,0.,12.0,0.,12.0,0.,12.0
1980-11-13 19:15:27.660 ,4,0,0.,12.0,0.,12.0,0.,12.0,0.,12.0
1980-11-13 19:15:39.660 ,4,0,0.,12.0,0.,12.0,0.,12.0,0.,12.0
1980-11-13 19:15:51.660 ,5,1,0.,12.0,0.,12.0,0.,12.0,0.,12.0
1980-11-13 19:16:03.660 ,5,1,0.,12.0,0.,12.0,0.,12.0,0.,12.0
1980-11-13 19:16:15.660 ,5,0,0.,12.0,0.,12.0,0.,12.0,0.,12.0
1980-11-13 19:16:27.660 ,5,0,0.,12.0,0.,12.0,0.,12.0,0.,12.0
1980-11-13 19:16:39.660 ,6,1,0.,12.0,0.,12.0,0.,12.0,0.,12.0
1980-11-13 19:16:51.660 ,6,1,0.,12.0,0.,12.0,0.,12.0,0.,12.0
1980-11-13 19:17:03.660 ,6,0,0.,12.0,0.,12.0,0.,12.0,0.,12.0
1980-11-13 19:17:15.660 ,6,0,0.,12.0,0.,12.0,0.,12.0,0.,12.0
1980-11-13 19:17:27.660 ,7,1,0.,12.0,0.,12.0,0.,12.0,0.,12.0
1980-11-13 19:17:39.660 ,7,1,0.,12.0,0.,12.0,0.,12.0,0.,12.0
1980-11-13 19:17:51.660 ,7,0,0.,12.0,0.,12.0,0.,12.0,0.,12.0
1980-11-13 19:18:03.660 ,7,0,0.,12.0,0.,12.0,0.,12.0,0.,12.0